Flag for Switzerland Weather past 2 weeks in Thun, Bern, Switzerland

Now
61 °F

Broken clouds.


Feels Like: 61 °F
Forecast: 56 / 87 °F
Wind: 2 mph from North

Location: Bern / Belp

Current Time: Aug 2, 2015 at 9:19:08 AM

Latest Report: Aug 2, 2015 at 8:50 AM


Visibility: 4 mi

Pressure: 30.12 "Hg (28.20 "Hg at 557m altitude)

Humidity: 100%

Dew point: 61 °F

Location of ThunLocation

Historic Weather in Thun — Graph

°F

Thun temperature yesterday

Maximum temperature yesterday: 66 °F (at 3:20 PM)
Minimum temperature yesterday: 59 °F (at 12:50 AM)
Average temperature yesterday: 62 °F

Past Weeks' High & Low Weather Summary

 TemperatureHumidityPressure
High93 °F (Jul 21, 3:20 PM)100% (Jul 20, 4:50 AM)30.21 "Hg (Jul 20, 4:50 AM)
Low45 °F (Jul 31, 4:50 AM)30% (Jul 21, 3:50 PM)29.74 "Hg (Jul 24, 5:20 PM)
Average68 °F73%29.98 "Hg
* Reported Jul 18 8:20 AM — Aug 2 8:20 AM, Thun, Weather by CustomWeather, © 2015

Note: Actual official high and low records may vary slightly from our data, if they occured in-between our weather recording intervals... More about our weather records

Advertising

Thun weather history for previous 24 hours

 ConditionsComfort  
Time TempWeatherWind HumidityBarometerVisibility
8:20 AM
Sun, Aug 2
61 °FPartly sunny.2 mph100%30.12 "Hg4 mi
7:50 AM61 °FFog.5 mph100%30.12 "Hg3 mi
7:20 AM61 °FFog.2 mph100%30.12 "Hg2 mi
6:50 AM59 °FFog.2 mph100%30.12 "Hg1 mi
6:20 AM59 °FFog.2 mph100%30.09 "Hg1 mi
5:50 AM59 °FFog.3 mph100%30.09 "Hg1 mi
5:20 AM59 °FFog.No wind100%30.09 "Hg2 mi
4:50 AM59 °FPassing clouds.1 mph100%30.09 "Hg3 mi
4:20 AM59 °FFog.2 mph100%30.09 "Hg1 mi
3:50 AM59 °FPassing clouds.1 mph100%30.09 "Hg1 mi
3:20 AM59 °FFog.1 mph100%30.09 "Hg0 mi
2:50 AM59 °FFog.1 mph100%30.09 "Hg0 mi
2:20 AM59 °FFog.No wind100%30.09 "Hg0 mi
1:50 AM59 °FFog.1 mph100%30.09 "Hg1 mi
1:20 AM59 °FFog.3 mph100%30.09 "Hg1 mi
12:50 AM61 °FFog.2 mph100%30.09 "Hg1 mi
12:20 AM61 °FFog.2 mph100%30.09 "Hg1 mi
11:20 PM
Sat, Aug 1
61 °FSprinkles. Passing clouds.1 mph100%30.09 "Hg1 mi
10:50 PM61 °FSprinkles. Partly cloudy.3 mph100%30.09 "Hg2 mi
10:20 PM61 °FSprinkles. Partly cloudy.3 mph100%30.09 "Hg2 mi
9:50 PM61 °FLots of rain. Broken clouds.7 mph100%30.07 "Hg2 mi
9:20 PM63 °FRain showers. Broken clouds.3 mph94%30.07 "Hg3 mi
8:50 PM63 °FBroken clouds.2 mph94%30.04 "HgN/A
8:20 PM64 °FDrizzle. Broken clouds.2 mph94%30.04 "HgN/A
7:50 PM64 °FBroken clouds.3 mph83%30.04 "HgN/A
7:20 PM64 °FBroken clouds.2 mph83%30.04 "HgN/A
6:50 PM66 °FBroken clouds.3 mph83%30.04 "HgN/A
6:20 PM64 °FBroken clouds.3 mph83%30.04 "HgN/A
5:50 PM64 °FBroken clouds.3 mph88%30.04 "HgN/A
5:20 PM64 °FBroken clouds.6 mph88%30.01 "HgN/A
4:50 PM64 °FBroken clouds.6 mph83%30.01 "HgN/A
4:20 PM64 °FBroken clouds.5 mph83%30.01 "HgN/A
3:50 PM64 °FBroken clouds.6 mph83%30.01 "HgN/A
3:20 PM66 °FPartly sunny.5 mph78%30.01 "HgN/A
2:50 PM64 °FPartly sunny.6 mph83%30.01 "HgN/A
2:20 PM64 °FMore clouds than sun.7 mph83%30.01 "HgN/A
1:50 PM64 °FPartly sunny.7 mph83%30.01 "HgN/A
1:20 PM64 °FBroken clouds.6 mph83%30.01 "HgN/A
12:50 PM64 °FBroken clouds.6 mph83%30.01 "HgN/A
12:20 PM64 °FBroken clouds.5 mph83%30.01 "HgN/A
11:50 AM64 °FBroken clouds.7 mph83%30.01 "HgN/A
11:20 AM63 °FBroken clouds.6 mph88%30.01 "HgN/A
10:50 AM63 °FLight rain. Broken clouds.6 mph88%30.01 "HgN/A
10:20 AM61 °FLight rain. Broken clouds.1 mph94%30.01 "Hg5 mi
9:50 AM61 °FLight rain. Broken clouds.2 mph94%30.01 "Hg5 mi
9:20 AM61 °FLight rain. Partly sunny.3 mph94%30.01 "Hg5 mi
Weather by CustomWeather, © 2015

See weather overviewHow to use our weather pages